Back to catalog

CHUANG XIN 20A

CX-20A

AliveScienceLEO
NORAD 58425·PAYLOAD·🇨🇳 China

Launched Nov 23, 2023 from Xichang Satellite Launch Center

Loading…

Next Passes (next 24 hours)

TLE

FreshSource: Space-Track

Epoch: Sep 14, 2026, 14:30 UTC

1 58425U 23181A   26257.60460699 -.00000094  00000-0  61405-4 0  9995
2 58425  49.9611 358.8231 0013845 179.4597 180.6297 13.41504010137754

Track CHUANG XIN 20A in real time with AllMySat

Download on the App Store